Погода в Рогнедине

Россия / Брянская область     53°48′21″N   33°33′38″E
темп.,
°C
ветер,
м/с
пор.,
м/с
влажн.,
%
обл.,
%
осадки,
мм/ч
давл.,
гПа
погр.,
м
16 мая, вс
вс1600:00+11ююз38945 0.0 1010159
03:00+10ююз36945 0.0 1011113
06:00+11ю35955 0.0 1012118
09:00+16ююз35795 0.0 1012486
12:00+19ююз346323 0.3 10121385
15:00+19ю3466100 0.4 1012651
18:00+18ююз357397 0.1 1012271
21:00+15з1180100 0.1 101211
17 мая, пн
пн1700:00+13в338311 0.0 101230
03:00+12в3591100 0.0 101276
06:00+12всв3988100 0.0 1011181
09:00+17в5138086 0.6 1009483
12:00+23вюв71163100 0.1 10071067
15:00+25юв71356100 0.1 10051471
18:00+23вюв713655 0.0 1004936
21:00+19юв61474100 0.0 1004459
18 мая, вт
вт1800:00+17юв61486100 0.1 1004472
03:00+16юв5129498 0.1 1004386
06:00+16юв51296100 0.0 1004411
09:00+20ююв61080100 0.0 1005918
12:00+21ююв71073100 1.0 10051388
15:00+21юв586699 3.6 10051268
18:00+18ю5881100 2.2 1004299
21:00+14ююв3697100 6.1 1005203
19 мая, ср
ср1900:00+12ююв369638 0.0 1005132
03:00+13вюв239795 0.0 100561
06:00+13вюв2697100 0.3 1004194
09:00+16юв469294 1.1 1004545
12:00+16ююв5787100 0.2 1005820
15:00+18ююв577796 1.3 10051036
18:00+18ююв467847 0.9 1004967
21:00+13ююв3492100 1.1 100555
20 мая, чт
чт2000:00+12ююв239338 0.0 100551
03:00+11юв229485 0.0 100532
06:00+11ююв259769 0.7 1005187
09:00+15ююв348284 0.8 1005567
12:00+16ююз567798 1.8 10051061
15:00+14зюз9108460 3.3 1006875
18:00+12зюз8138398 0.1 10091161
21:00+10зюз51184100 0.1 1011513